User: anonymous   Login
Location: Table Mountain
(47.2500°N, 120.5778°W)
Time: 01:06:21
(UTC-07:00)
Language:

Tiangong 2 - Orbit

View from above orbital plane
View from above orbital plane
View from above satellite
View from above satellite

Ground track
Ground track

The orbit data is extracted from the following two-line orbital elements,

1 41765U 16057A   18199.75870001  .00003085  00000-0  43160-4 0  9992
2 41765  42.7841 152.6069 0005813 130.3232 303.1364 15.59060005104951
Epoch (UTC): 18 July 2018 18:12:31
Eccentricity: 0.0005813
inclination: 42.7841°
perigee height: 386 km
apogee height: 394 km
right ascension of ascending node: 152.6069°
argument of perigee: 130.3232°
revolutions per day: 15.59060005
mean anomaly at epoch: 303.1364°
orbit number at epoch: 10495

The dashed part of the orbit path shows where the satellite is in the earth's shadow,  

DLR